Weather History for Mammoth, CA

Change the Weather History Date:

Thursday, July 11, 2013

  Actual Average Record
Temperature  
Mean Temperature 64 °F -  
Max Temperature 75 °F 76 °F 91 °F (2012)
Min Temperature 51 °F 63 °F 35 °F (2011)
Degree Days  
Heating Degree Days 1    
Growing Degree Days 14 (Base 50)    
Moisture  
Dew Point 41 °F    
Average Humidity 48    
Maximum Humidity 88    
Minimum Humidity 21    
Precipitation  
Precipitation 0.02 in - - ()
Sea Level Pressure  
Sea Level Pressure 30.23 in    
Wind  
Wind Speed 5 mph (WSW)    
Max Wind Speed 23 mph    
Max Gust Speed 28 mph    
Visibility 10 miles    
Events Rain    
Averages and records for this station are not official NWS values.
T = Trace of Precipitation, MM = Missing Value Source: NWS Daily Summary

Daily Weather History Graph

Daily Weather History Graph

Search for Another Location

Airport:

Trip Planner

Search our weather history database for the weather conditions in past years. The results will help you decide how hot, cold, wet, or windy it might be!

Date:

Astronomy

Jul. 11, 2013 Rise Set
Actual Time 5:43 AM PDT 8:18 PM PDT
Civil Twilight 5:12 AM PDT 8:48 PM PDT
Nautical Twilight 4:34 AM PDT 9:26 PM PDT
Astronomical Twilight 3:52 AM PDT 10:08 PM PDT
Moon 9:01 AM PDT (7/11) 10:06 PM PDT (7/11)
Length of Visible Light 15h 35m
Length of Day
14h 34m
Waxing Crescent, 11% of the Moon is Illuminated
Jul 11
Waxing Crescent
Jul 15
First Quarter
Jul 22
Full
Jul 29
Last Quarter
Aug 6
New

Hourly Weather History & Observations

Time (PDT) Temp. Dew Point Humidity Pressure Visibility Wind Dir Wind Speed Gust Speed Precip Events Conditions
12:15 AM 64.4 °F 35.6 °F 34% 30.29 in 10.0 mi Calm Calm - N/A   Overcast
12:35 AM 64.4 °F 35.6 °F 34% 30.28 in 10.0 mi Calm Calm - N/A   Overcast
12:55 AM 64.4 °F 37.4 °F 37% 30.27 in 10.0 mi SSE 3.5 mph - N/A   Overcast
1:15 AM 64.4 °F 37.4 °F 37% 30.27 in 10.0 mi East 3.5 mph - N/A   Overcast
1:35 AM 64.4 °F 41.0 °F 42% 30.28 in 10.0 mi Calm Calm - N/A Rain Light Rain
1:55 AM 57.2 °F 48.2 °F 72% 30.28 in 10.0 mi NW 11.5 mph - N/A Rain Light Rain
2:15 AM 57.2 °F 48.2 °F 72% 30.29 in 10.0 mi WSW 4.6 mph - 0.01 in Rain Light Rain
2:35 AM 59.0 °F 48.2 °F 67% 30.27 in 10.0 mi SW 6.9 mph - 0.01 in Rain Rain
2:55 AM 57.2 °F 50.0 °F 77% 30.26 in 10.0 mi East 10.4 mph 19.6 mph 0.02 in Rain Rain
3:15 AM 55.4 °F 50.0 °F 82% 30.27 in 10.0 mi East 3.5 mph - N/A   Overcast
3:35 AM 55.4 °F 50.0 °F 82% 30.27 in 10.0 mi NNW 3.5 mph - N/A   Overcast
3:55 AM 55.4 °F 50.0 °F 82% 30.27 in 10.0 mi NW 3.5 mph - N/A   Overcast
4:15 AM 55.4 °F 50.0 °F 82% 30.27 in 10.0 mi Calm Calm - N/A   Overcast
4:35 AM 55.4 °F 50.0 °F 82% 30.26 in 10.0 mi Calm Calm - N/A   Overcast
4:55 AM 55.4 °F 51.8 °F 88% 30.27 in 10.0 mi Calm Calm - N/A   Overcast
5:15 AM 55.4 °F 50.0 °F 82% 30.26 in 10.0 mi Calm Calm - N/A   Overcast
5:35 AM 55.4 °F 48.2 °F 77% 30.26 in 10.0 mi Calm Calm - N/A   Mostly Cloudy
5:55 AM 55.4 °F 51.8 °F 88% 30.26 in 10.0 mi Calm Calm - N/A   Scattered Clouds
6:15 AM 53.6 °F 50.0 °F 88% 30.26 in 10.0 mi Calm Calm - N/A   Scattered Clouds
6:35 AM 53.6 °F 50.0 °F 88% 30.26 in 10.0 mi Calm Calm - N/A   Scattered Clouds
6:55 AM 55.4 °F 51.8 °F 88% 30.26 in 10.0 mi North 3.5 mph - N/A   Scattered Clouds
7:15 AM 55.4 °F 50.0 °F 82% 30.25 in 10.0 mi Calm Calm - N/A   Scattered Clouds
7:35 AM 57.2 °F 50.0 °F 77% 30.26 in 10.0 mi Calm Calm - N/A   Scattered Clouds
7:55 AM 57.2 °F 50.0 °F 77% 30.26 in 10.0 mi Calm Calm - N/A   Scattered Clouds
8:15 AM 59.0 °F 50.0 °F 72% 30.26 in 10.0 mi Calm Calm - N/A   Clear
8:35 AM 59.0 °F 50.0 °F 72% 30.27 in 10.0 mi Calm Calm - N/A   Clear
8:55 AM 60.8 °F 50.0 °F 68% 30.27 in 10.0 mi Calm Calm - N/A   Clear
9:15 AM 60.8 °F 50.0 °F 68% 30.27 in 10.0 mi SE 3.5 mph - N/A   Scattered Clouds
9:35 AM 62.6 °F 48.2 °F 59% 30.26 in 10.0 mi Calm Calm - N/A   Scattered Clouds
9:55 AM 62.6 °F 46.4 °F 55% 30.25 in 10.0 mi Calm Calm - N/A   Scattered Clouds
10:15 AM 64.4 °F 48.2 °F 56% 30.25 in 10.0 mi Calm Calm - N/A   Scattered Clouds
10:35 AM 66.2 °F 46.4 °F 49% 30.25 in 10.0 mi SE 4.6 mph - N/A   Scattered Clouds
10:55 AM 68.0 °F 44.6 °F 43% 30.24 in 10.0 mi East 5.8 mph - N/A   Mostly Cloudy
11:15 AM 68.0 °F 46.4 °F 46% 30.25 in 10.0 mi SE 8.1 mph - N/A   Scattered Clouds
11:35 AM 68.0 °F 44.6 °F 43% 30.24 in 10.0 mi East 6.9 mph - N/A   Scattered Clouds
11:55 AM 69.8 °F 46.4 °F 43% 30.25 in 10.0 mi SE 5.8 mph - N/A   Scattered Clouds
12:15 PM 71.6 °F 44.6 °F 38% 30.24 in 10.0 mi ESE 8.1 mph - N/A   Scattered Clouds
12:35 PM 73.4 °F 42.8 °F 33% 30.24 in 10.0 mi ESE 8.1 mph - N/A   Scattered Clouds
12:55 PM 73.4 °F 42.8 °F 33% 30.24 in 10.0 mi ESE 9.2 mph - N/A   Scattered Clouds
1:15 PM 71.6 °F 42.8 °F 35% 30.24 in 10.0 mi ESE 9.2 mph - N/A   Scattered Clouds
1:35 PM 71.6 °F 41.0 °F 33% 30.24 in 10.0 mi West 3.5 mph - N/A   Mostly Cloudy
1:55 PM 73.4 °F 41.0 °F 31% 30.23 in 10.0 mi West 13.8 mph 20.7 mph N/A   Mostly Cloudy
2:15 PM 73.4 °F 35.6 °F 25% 30.22 in 10.0 mi West 11.5 mph - N/A   Scattered Clouds
2:35 PM 73.4 °F 33.8 °F 23% 30.21 in 10.0 mi West 17.3 mph 23.0 mph N/A   Scattered Clouds
2:55 PM 75.2 °F 33.8 °F 22% 30.21 in 10.0 mi West 17.3 mph 23.0 mph N/A   Scattered Clouds
3:15 PM 73.4 °F 33.8 °F 23% 30.20 in 10.0 mi West 15.0 mph 25.3 mph N/A   Clear
3:35 PM 75.2 °F 33.8 °F 22% 30.20 in 10.0 mi WNW 11.5 mph 16.1 mph N/A   Scattered Clouds
3:55 PM 73.4 °F 33.8 °F 23% 30.19 in 10.0 mi West 13.8 mph 26.5 mph N/A   Scattered Clouds
4:15 PM 75.2 °F 33.8 °F 22% 30.19 in 10.0 mi West 15.0 mph 21.9 mph N/A   Scattered Clouds
4:35 PM 75.2 °F 32.0 °F 21% 30.19 in 10.0 mi West 15.0 mph 23.0 mph N/A   Clear
4:55 PM 75.2 °F 32.0 °F 21% 30.19 in 10.0 mi WNW 13.8 mph 21.9 mph N/A   Clear
5:15 PM 73.4 °F 33.8 °F 23% 30.18 in 10.0 mi West 23.0 mph - N/A   Clear
5:35 PM 73.4 °F 33.8 °F 23% 30.18 in 10.0 mi West 16.1 mph 24.2 mph N/A   Clear
5:55 PM 75.2 °F 33.8 °F 22% 30.18 in 10.0 mi West 11.5 mph 20.7 mph N/A   Clear
6:15 PM 75.2 °F 33.8 °F 22% 30.17 in 10.0 mi West 16.1 mph 27.6 mph N/A   Clear
6:35 PM 73.4 °F 33.8 °F 23% 30.17 in 10.0 mi West 19.6 mph 27.6 mph N/A   Clear
6:55 PM 71.6 °F 33.8 °F 25% 30.17 in 10.0 mi West 13.8 mph 27.6 mph N/A   Clear
7:15 PM 71.6 °F 32.0 °F 23% 30.17 in 10.0 mi WSW 8.1 mph 17.3 mph N/A   Clear
7:35 PM 69.8 °F 33.8 °F 27% 30.17 in 10.0 mi SW 15.0 mph 20.7 mph N/A   Clear
7:55 PM 68.0 °F 33.8 °F 28% 30.17 in 10.0 mi SW 13.8 mph 23.0 mph N/A   Clear
8:15 PM 68.0 °F 33.8 °F 28% 30.17 in 10.0 mi SW 12.7 mph 20.7 mph N/A   Clear
8:35 PM 66.2 °F 33.8 °F 30% 30.17 in 10.0 mi SSW 12.7 mph 21.9 mph N/A   Clear
8:55 PM 66.2 °F 33.8 °F 30% 30.18 in 10.0 mi SSW 12.7 mph 23.0 mph N/A   Clear
9:15 PM 64.4 °F 33.8 °F 32% 30.19 in 10.0 mi SW 6.9 mph 23.0 mph N/A   Clear
9:35 PM 64.4 °F 33.8 °F 32% 30.20 in 10.0 mi South 8.1 mph - N/A   Clear
9:55 PM 64.4 °F 33.8 °F 32% 30.20 in 10.0 mi South 11.5 mph - N/A   Clear
10:15 PM 62.6 °F 33.8 °F 34% 30.22 in 10.0 mi North 3.5 mph - N/A   Clear
10:35 PM 59.0 °F 33.8 °F 39% 30.22 in 10.0 mi Calm Calm - N/A   Clear
10:55 PM 55.4 °F 33.8 °F 44% 30.22 in 10.0 mi NE 5.8 mph - N/A   Clear
11:15 PM 55.4 °F 33.8 °F 44% 30.22 in 10.0 mi NW 3.5 mph - N/A   Clear
11:35 PM 55.4 °F 33.8 °F 44% 30.22 in 10.0 mi Calm Calm - N/A   Clear
11:55 PM 51.8 °F 32.0 °F 47% 30.22 in 10.0 mi Calm Calm - N/A   Clear